Showing default

VIASAT 2, 42740

Orbit data source: Space-Track

VIASAT 2, 42740 is a payload satellite owned by ViaSat (US) in GEO that was launched on Thu, 01 Jun 2017 UTC via an ARIANE 5ECA launch vehicle from the French Guiana (FRGUI). Payload-class satellites include a variety of spacecraft equipped with specific instruments for various scientific and technological missions. These include communications satellites like Starlink; space stations such as the ISS; scientific satellites like the Hubble; Earth observation satellites from companies like Planet Labs, Umbra, and HawkEye 360; GPS; miniature CubeSats for education and research; and military/defense satellites.

Loading next visibility...
Identifier
42740, 2017-029A
Orbit
GEO
Country
Flag of USUS
Related business
Manufacturer
Boeing/ES
Mission
Operational Commercial Communications
Bus & Motor
BSS-702HP, R-4D
Mass
6,418 kg wet, 3,500 kg dry
Launch date (UTC)
2017-06-01 (9 years ago)
Launch vehicle
ARIANE 5ECA
Launch site
French Guiana (FRGUI)
Object type
Payload
Rocket body
Debris
Shape & HBR
Box + 2 Pan, 17.0 m
Radar Cross Section
31.184 m², Large (>1 m²)

Expand to show TLE details & history
Last TLE update: 2 days ago

TLE from 2 days ago
0 VIASAT 2
1 42740U 17029A   26171.37820375 -.00000270  00000-0  00000+0 0  9997
2 42740   0.0166 300.6474 0000207  83.9333 310.2681  1.00271244 33237
Epoch: 2026-06-20T09:04Z
TLE epoch observation values (Epoch: 2026-06-20T09:04:36.804Z)
Latitude
0.00422°
Longitude
-69.88779°
Altitude
35,785.676 km
Speed
3.075 km/s
True Right ascension
22h 19m 26s
True Declination
0° 00' 15"
Sunlit
Object was in daylight at epoch
Visualization orbit readout
Latitude
Unknown
Longitude
Unknown
Altitude
Unknown
Speed
Unknown
Apparent Right ascension
Unknown
Apparent Declination
Unknown
Sunlit
N/A
Visualization observer readout
Local Sidereal Time
21:40:00
Azimuth
Unknown
Elevation
Unknown
Doppler factor
Unknown
Orbital elements
Apogee altitude
35,788.69 km
Perigee altitude
35,786.944 km
Semi-major axis
42,165.954 km
Eccentricity
0.00002
Inclination
0.0166°
RAAN
300.6474°
Arg. of periapsis
83.9333°
True anomaly
310.26629°
Mean anomaly
310.2681°
Eccentric anomaly
310.2672°
Mean motion
0.25067 °/min
Orbital period
1,436.16 mins
BSTAR
0
Loading maneuver chart data...
Computing Atmospheric mass density...
Loading historical data...
Loading historical data...
Loading historical data...
Loading historical data...
Loading historical data...
Loading historical data...
Loading historical data...
Other satellites on launch #29 in the year 2017 (2017-06-01 UTC)

Documentation

Showing up to 5 results
|